Location: Cazarilh
(42.9578°N, 0.5819°E)
Time: 22:36:56
(UTC+00:00)

USA 116 - Pass Details

Date: 11 December 2019
Orbit: 405 x 834 km, 97.9° (Epoch: 18 November)

Event Time Altitude Azimuth Distance (km) Brightness Sun altitude
Rises 05:51:40 0° 179° (S) 2,837 7.6 -15.3°
Reaches altitude 10° 05:53:46 10° 185° (S) 2,000 6.7 -14.9°
Maximum altitude 05:58:03 51° 261° (W) 856 4.3 -14.1°
Drops below altitude 10° 06:02:53 10° 338° (NNW) 2,246 6.4 -13.3°
Enters shadow 06:04:23 - 341° (NNW) 2,836 7.0 -13.0°
